Location: Colonia Mina de C?rbuni
(46.1667°N, 22.7167°E)
Time: 07:09:57
(UTC+00:00)

Courier 1B - Pass Details

Date: 25 April 2024
Orbit: 962 x 1208 km, 28.3° (Epoch: 26 May)

Event Time Altitude Azimuth Distance (km) Brightness Sun altitude
Rises 21:20:34 0° 209° (SSW) 4,099 - -28.4°
Reaches altitude 10° 21:25:40 10° 182° (S) 3,121 - -28.7°
Maximum altitude 21:28:26 12° 160° (SSE) 2,940 - -28.8°
Drops below altitude 10° 21:31:10 10° 139° (SE) 3,086 - -28.9°
Sets 21:36:07 0° 111° (ESE) 4,002 - -29.2°
